• In Latvia
  • List of Countries
  • For 7 days
  • Water Temperature
  • Satellite Maps
  • Weather Map
  • Weather Widgets
  • user-avatar
    Login

    Hourly Weather Lezhe

    Today, 24 April, Monday

    Time Temperature Precipitation Wind Pressure Humidity
    00:00 +8°C° 0 mm 1 mps 741 mmHg 88%
    01:00 +7°C° 0 mm 2 mps 741 mmHg 87%
    02:00 +6°C° 0 mm 2 mps 741 mmHg 87%
    03:00 +6°C° 0 mm 2 mps 741 mmHg 86%
    04:00 +6°C° 0 mm 2 mps 741 mmHg 86%
    05:00 +7°C° 0 mm 2 mps 741 mmHg 82%
    06:00 +9°C° 0 mm 2 mps 741 mmHg 77%
    07:00 +10°C° 0 mm 2 mps 742 mmHg 73%
    08:00 +13°C° 0 mm 2 mps 742 mmHg 66%
    09:00 +15°C° 0 mm 1 mps 742 mmHg 60%
    10:00 +18°C° 0 mm 1 mps 742 mmHg 53%
    11:00 +18°C° 0 mm 1 mps 741 mmHg 51%
    12:00 +19°C° 0 mm 1 mps 741 mmHg 49%
    13:00 +19°C° 0 mm 2 mps 741 mmHg 47%
    14:00 +18°C° 0 mm 2 mps 741 mmHg 51%
    15:00 +18°C° 0 mm 2 mps 740 mmHg 54%
    16:00 +17°C° 0 mm 2 mps 740 mmHg 57%
    17:00 +15°C° 0 mm 1 mps 740 mmHg 67%
    18:00 +12°C° 0 mm 1 mps 740 mmHg 77%
    19:00 +10°C° 0 mm 1 mps 740 mmHg 87%
    20:00 +9°C° 0 mm 1 mps 740 mmHg 87%
    21:00 +9°C° 0 mm 1 mps 740 mmHg 87%
    22:00 +9°C° 0 mm 1 mps 741 mmHg 87%
    23:00 +9°C° 0 mm 1 mps 741 mmHg 87%

    Tomorrow, 25 April, Tuesday

    Time Temperature Precipitation Wind Pressure Humidity
    00:00 +8°C° 0 mm 1 mps 741 mmHg 86%
    01:00 +8°C° 0 mm 1 mps 740 mmHg 86%
    02:00 +8°C° 0 mm 1 mps 740 mmHg 86%
    03:00 +8°C° 0 mm 1 mps 740 mmHg 86%
    04:00 +8°C° 0 mm 1 mps 740 mmHg 87%
    05:00 +10°C° 0 mm 1 mps 740 mmHg 80%
    06:00 +12°C° 0 mm 2 mps 740 mmHg 73%
    07:00 +14°C° 0 mm 2 mps 740 mmHg 66%
    08:00 +16°C° 0 mm 2 mps 740 mmHg 61%
    09:00 +17°C° 0 mm 2 mps 740 mmHg 57%
    10:00 +18°C° 0 mm 2 mps 740 mmHg 52%
    11:00 +19°C° 0 mm 3 mps 740 mmHg 51%
    12:00 +19°C° 0 mm 3 mps 739 mmHg 49%
    13:00 +19°C° 0 mm 3 mps 739 mmHg 47%
    14:00 +19°C° 0 mm 3 mps 739 mmHg 51%
    15:00 +18°C° 0 mm 3 mps 738 mmHg 55%
    16:00 +18°C° 0 mm 3 mps 738 mmHg 59%
    17:00 +16°C° 0 mm 3 mps 738 mmHg 70%
    18:00 +13°C° 0 mm 2 mps 738 mmHg 81%
    19:00 +10°C° 0 mm 2 mps 738 mmHg 92%
    20:00 +9°C° 0 mm 2 mps 738 mmHg 93%
    21:00 +9°C° 0 mm 2 mps 739 mmHg 94%
    22:00 +9°C° 0 mm 1 mps 739 mmHg 94%
    23:00 +9°C° 0 mm 1 mps 739 mmHg 93%

    Day after tomorrow, 26 April, Wednesday

    Time Temperature Precipitation Wind Pressure Humidity
    00:00 +9°C° 0 mm 1 mps 739 mmHg 91%
    01:00 +9°C° 0 mm 1 mps 739 mmHg 89%
    02:00 +8°C° 0 mm 1 mps 739 mmHg 88%
    03:00 +7°C° 0 mm 2 mps 739 mmHg 87%
    04:00 +7°C° 0 mm 2 mps 738 mmHg 86%
    05:00 +9°C° 0 mm 2 mps 738 mmHg 78%
    06:00 +12°C° 0 mm 2 mps 738 mmHg 70%
    07:00 +14°C° 0 mm 2 mps 738 mmHg 63%
    08:00 +16°C° 0 mm 2 mps 738 mmHg 54%
    09:00 +18°C° 0 mm 2 mps 738 mmHg 45%
    10:00 +20°C° 0 mm 2 mps 738 mmHg 36%
    11:00 +20°C° 0 mm 2 mps 738 mmHg 36%
    12:00 +20°C° 0 mm 3 mps 737 mmHg 35%
    13:00 +21°C° 0 mm 3 mps 737 mmHg 34%
    14:00 +20°C° 0 mm 3 mps 737 mmHg 38%
    15:00 +20°C° 0 mm 3 mps 737 mmHg 41%
    16:00 +19°C° 0 mm 3 mps 736 mmHg 45%
    17:00 +17°C° 0 mm 2 mps 736 mmHg 56%
    18:00 +14°C° 0 mm 2 mps 737 mmHg 68%
    19:00 +12°C° 0 mm 2 mps 737 mmHg 79%
    20:00 +12°C° 0 mm 2 mps 737 mmHg 78%
    21:00 +12°C° 0 mm 2 mps 737 mmHg 76%
    22:00 +12°C° 0 mm 2 mps 738 mmHg 75%
    23:00 +12°C° 0 mm 2 mps 737 mmHg 73%

    27 April, Thursday

    Time Temperature Precipitation Wind Pressure Humidity
    00:00 +12°C° 0 mm 2 mps 737 mmHg 72%
    01:00 +10°C° 0 mm 2 mps 737 mmHg 71%
    02:00 +10°C° 0 mm 2 mps 737 mmHg 71%
    03:00 +10°C° 0 mm 2 mps 737 mmHg 71%
    04:00 +10°C° 0 mm 2 mps 736 mmHg 70%
    05:00 +13°C° 0 mm 2 mps 737 mmHg 65%
    06:00 +15°C° 0 mm 2 mps 737 mmHg 60%
    07:00 +18°C° 0 mm 2 mps 737 mmHg 55%
    08:00 +19°C° 0 mm 2 mps 737 mmHg 50%
    09:00 +21°C° 0 mm 2 mps 737 mmHg 45%
    10:00 +22°C° 0 mm 3 mps 737 mmHg 40%
    11:00 +24°C° 0 mm 3 mps 736 mmHg 40%
    12:00 +24°C° 0 mm 3 mps 736 mmHg 40%
    13:00 +23°C° 0 mm 4 mps 736 mmHg 40%
    14:00 +24°C° 0 mm 3 mps 736 mmHg 42%
    15:00 +22°C° 0 mm 3 mps 736 mmHg 45%
    16:00 +22°C° 0 mm 3 mps 735 mmHg 47%
    17:00 +20°C° 0 mm 3 mps 735 mmHg 55%
    18:00 +17°C° 0 mm 2 mps 736 mmHg 64%
    19:00 +15°C° 0 mm 2 mps 736 mmHg 72%
    20:00 +15°C° 0 mm 2 mps 736 mmHg 71%
    21:00 +14°C° 0 mm 2 mps 736 mmHg 71%
    22:00 +14°C° 0 mm 2 mps 736 mmHg 70%
    23:00 +14°C° 0 mm 2 mps 736 mmHg 68%

    28 April, Friday

    Time Temperature Precipitation Wind Pressure Humidity
    00:00 +14°C° 0 mm 2 mps 735 mmHg 66%
    01:00 +14°C° 0 mm 2 mps 735 mmHg 64%
    02:00 +14°C° 0 mm 2 mps 735 mmHg 65%
    03:00 +14°C° 0 mm 2 mps 735 mmHg 66%
    04:00 +13°C° 0 mm 2 mps 734 mmHg 68%
    05:00 +15°C° 0 mm 2 mps 734 mmHg 65%
    06:00 +16°C° 0 mm 2 mps 735 mmHg 62%
    07:00 +17°C° 0 mm 2 mps 735 mmHg 59%
    08:00 +18°C° 0.2 mm 3 mps 735 mmHg 59%
    09:00 +18°C° 0.2 mm 4 mps 734 mmHg 58%
    10:00 +17°C° 0.2 mm 5 mps 734 mmHg 58%
    11:00 +17°C° 0.3 mm 5 mps 734 mmHg 61%
    12:00 +17°C° 0.3 mm 5 mps 734 mmHg 65%
    13:00 +17°C° 0.3 mm 4 mps 733 mmHg 68%
    14:00 +15°C° 2 mm 4 mps 733 mmHg 75%
    15:00 +14°C° 2 mm 4 mps 733 mmHg 81%
    16:00 +14°C° 2 mm 3 mps 733 mmHg 88%
    17:00 +13°C° 1 mm 3 mps 733 mmHg 89%
    18:00 +13°C° 1 mm 3 mps 733 mmHg 90%
    19:00 +13°C° 1 mm 3 mps 733 mmHg 92%
    20:00 +14°C° 1 mm 2 mps 733 mmHg 91%
    21:00 +13°C° 1 mm 2 mps 733 mmHg 90%
    22:00 +13°C° 1 mm 2 mps 733 mmHg 89%
    23:00 +13°C° 1.4 mm 2 mps 733 mmHg 89%

    29 April, Saturday

    Time Temperature Precipitation Wind Pressure Humidity
    00:00 +13°C° 1.4 mm 2 mps 733 mmHg 90%
    01:00 +12°C° 1.4 mm 3 mps 733 mmHg 90%
    02:00 +13°C° 2 mm 2 mps 733 mmHg 91%
    03:00 +13°C° 2 mm 2 mps 733 mmHg 92%
    04:00 +12°C° 2 mm 2 mps 733 mmHg 93%
    05:00 +12°C° 2.1 mm 2 mps 733 mmHg 93%
    06:00 +12°C° 2.1 mm 2 mps 733 mmHg 93%
    07:00 +12°C° 2.1 mm 2 mps 733 mmHg 93%
    08:00 +12°C° 1.6 mm 2 mps 733 mmHg 93%
    09:00 +12°C° 1.6 mm 2 mps 733 mmHg 92%
    10:00 +12°C° 1.6 mm 2 mps 733 mmHg 92%
    11:00 +13°C° 0.9 mm 2 mps 733 mmHg 88%
    12:00 +13°C° 0.9 mm 2 mps 733 mmHg 85%
    13:00 +14°C° 0.9 mm 2 mps 733 mmHg 81%
    14:00 +14°C° 0 mm 2 mps 733 mmHg 78%
    15:00 +15°C° 0 mm 2 mps 733 mmHg 75%
    16:00 +15°C° 0 mm 2 mps 733 mmHg 72%
    17:00 +13°C° 0.1 mm 2 mps 733 mmHg 80%
    18:00 +12°C° 0.1 mm 1 mps 733 mmHg 88%
    19:00 +10°C° 0.1 mm 1 mps 733 mmHg 96%
    20:00 +9°C° 0.1 mm 1 mps 733 mmHg 96%
    21:00 +9°C° 0.1 mm 1 mps 733 mmHg 96%
    22:00 +9°C° 0.1 mm 1 mps 734 mmHg 96%
    23:00 +8°C° 0 mm 1 mps 733 mmHg 96%
    Show more